Goodrich, MI

4:14 PM EST on February 01, 2015 (GMT -0500)
Kelbel Weather | Change Station
CLOSE
Current Station
Personal Weather Station
Location: Goodrich, MI
Elevation: 892 ft
Nearby Weather Stations

Elev 892 ft 42.93 °N, 83.47 °W | Updated 4 minutes ago

Snow
Snow
15.4 °F
Feels Like 6 °F
N
6.3
Wind Variable Wind from East

Today
High -- | Low -- °F
--% Chance of Precip.
Yesterday
High -- | Low -- °F
Precip. -- in
7:49 AM 5:46 PM
Waxing Gibbous, 96% visible
Pressure 29.97 in
Visibility 0.5 miles
Clouds
Windchill 6 °F
Dew Point 12 °F
Humidity 87%
Rainfall 0.00 in
Snow Depth Not available.
UV Not available.
Pollen .10 out of 12
Air Quality Not available.
Flu Activity Not available.
METAR KFNT 012053Z 05019G27KT 1/2SM R09/3000V4000FT SN VV013 M08/M11 A2993 RMK AO2 PK WND 05027/2046 SLP147 P0003 60009 T10831111 58029

More Conditions Fewer Conditions

Pressure 29.97 in
Visibility 0.5 miles
Clouds
Windchill 6 °F
Dew Point 12 °F
Humidity 87%
Rainfall 0.00 in
Snow Depth Not available.
UV Not available.
Pollen .10 out of 12
Air Quality Not available.
Flu Activity Not available.
METAR KFNT 012053Z 05019G27KT 1/2SM R09/3000V4000FT SN VV013 M08/M11 A2993 RMK AO2 PK WND 05027/2046 SLP147 P0003 60009 T10831111 58029

More Conditions Fewer Conditions

10-Day Weather Forecast

Almanac

Astronomy

Feb. 01, 2015 Rise Set
Actual Time
Civil Twilight
Nautical Twilight
Astronomical Twilight
Moon
Length of Visible Light
Length of Day
Tomorrow will be .
, % of the Moon is Illuminated

Today's Extremes

State Highs State Lows

Community

WunderPhotos

Upload Photos

1,792,535 photos uploaded!

WunderBlogs® & News

Nearby

Air Quality

  Air Quality AQ Index Pollutant
Not available.

Snow Depth

Station Depth Elevation

Earthquake Activity

City Distance Mag. Time & Date
Minimum magnitude displayed is 2.5.

Coastal Water Temperatures

Place Temperature

Nearby Weather Stations